Regional Weather Roundup
Issued by NWS

Home | Current Version | Previous Version | Text Only | Print | Product List | Glossary Off
Versions: 1 2 3 4 5 6 7 8 9 10 11 12 13 14 15 16 17 18 19 20 21 22 23 24 25 26 27 28 29 30 31 32 33 34 35 36 37 38 39 40 41 42 43 44 45 46 47 48 49 50

475
ASUS43 KOAX 250610
RWRNE

WEATHER ROUNDUP FOR NEBRASKA
NATIONAL WEATHER SERVICE OMAHA NE
100 AM CDT TUE APR 25 2017

NOTES: SATELLITE DATA IS BEING USED TO AUGMENT CLOUD COVER ABOVE
       12000 FEET.
       "FAIR" INDICATES FEW OR NO CLOUDS BELOW 12,000 FEET WITH NO
       SIGNIFICANT WEATHER AND/OR OBSTRUCTIONS TO VISIBILITY.

  * THESE STATIONS DO NOT REPORT WEATHER SUCH AS RAIN...SNOW OR FOG.

NEZ001>004-019>022-054>056-250700-
NEBRASKA PANHANDLE

CITY           SKY/WX    TMP DP  RH WIND       PRES   REMARKS
SCOTTSBLUFF    HVY RAIN  46  42  86 W24G39    29.59R FOG
6HR MIN TEMP:  49; 6HR MAX TEMP:  62; 6HR PCP:  0.05;

ALLIANCE       LGT RAIN  47  44  90 E14       29.53F
6HR MIN TEMP:  47; 6HR MAX TEMP:  64; 6HR PCP:  0.08;

CHADRON        RAIN      48  43  82 SE13      29.57S
6HR MIN TEMP:  48; 6HR MAX TEMP:  62; 6HR PCP:  0.08;

KIMBALL        CLOUDY    46  45  99 E3        29.54F
SIDNEY         PTCLDY    45  42  89 E10       29.53F
6HR MIN TEMP:  45; 6HR MAX TEMP:  62; 6HR PCP:  0.03;

$$

NEZ057>060-069>072-079>082-250700-
SOUTHWEST NEBRASKA

CITY           SKY/WX    TMP DP  RH WIND       PRES   REMARKS
NORTH PLATTE   CLOUDY    51  43  74 NE7       29.60R
6HR MIN TEMP:  51; 6HR MAX TEMP:  70; 6HR PCP: TRACE;

IMPERIAL       LGT RAIN  51  44  77 N13       29.56R
6HR MIN TEMP:  51; 6HR MAX TEMP:  69; 6HR PCP:  0.01;

LEXINGTON      CLOUDY    54  40  58 NE18      29.55F
MCCOOK         CLOUDY    55  43  63 NE7       29.54R
6HR MIN TEMP:  55; 6HR MAX TEMP:  75;

OGALLALA       CLOUDY    51  45  80 E10       29.57F
$$

NEZ005>010-023>029-035>040-094-250700-
NORTH CENTRAL NEBRASKA

CITY           SKY/WX    TMP DP  RH WIND       PRES   REMARKS
VALENTINE      CLOUDY    43  36  76 E8        29.63R
6HR MIN TEMP:  43; 6HR MAX TEMP:  58;

AINSWORTH      CLOUDY    40  39  95 CALM      29.64R
BROKEN BOW     CLOUDY    49  40  71 NE7G20    29.58F
6HR MIN TEMP:  48; 6HR MAX TEMP:  65; 6HR PCP: TRACE;

O`NEILL        PTCLDY    42  38  84 N8        29.62R
ORD            CLOUDY    48  39  71 N13       29.55F
6HR MIN TEMP:  48; 6HR MAX TEMP:  64;

THEDFORD       CLOUDY    46  41  81 CALM      29.63S
$$

NEZ041-046>049-061>064-073>077-083>087-250700-
SOUTH CENTRAL NEBRASKA

CITY           SKY/WX    TMP DP  RH WIND       PRES   REMARKS
GRAND ISLAND   PTCLDY    50  41  71 NE12      29.57R
6HR MIN TEMP:  50; 6HR MAX TEMP:  70;

AURORA         PTCLDY    51  40  67 N12       29.55R
HASTINGS       CLOUDY    53  42  66 NE14      29.55S
6HR MIN TEMP:  53; 6HR MAX TEMP:  71;

HEBRON         CLEAR     56  44  62 N8        29.53S
HOLDREGE       CLOUDY    55  40  57 NE17      29.53F
KEARNEY *      CLOUDY    54  37  54 NE10      29.56F
YORK           PTCLDY    50  41  71 NE16      29.55R
$$

NEZ011>018-030>034-042>045-250700-
NORTHEAST NEBRASKA

CITY           SKY/WX    TMP DP  RH WIND       PRES   REMARKS
NORFOLK        PTCLDY    47  39  74 NW12      29.56S
6HR MIN TEMP:  46; 6HR MAX TEMP:  69;

ALBION         CLOUDY    47  40  74 N7        29.58S
BLAIR          CLEAR     55  46  70 N9        29.53S
FREMONT        CLEAR     51  41  68 NW6       29.55S
TEKAMAH        CLEAR     52  42  69 N10       29.54S
6HR MIN TEMP:  52; 6HR MAX TEMP:  72;

WAYNE          CLEAR     46  42  86 NW6       29.57R
$$

NEZ050>053-065>068-078-088>093-250700-
SOUTHEAST NEBRASKA

CITY           SKY/WX    TMP DP  RH WIND       PRES   REMARKS
LINCOLN        CLEAR     55  44  66 N15       29.54R
6HR MIN TEMP:  55; 6HR MAX TEMP:  72;

OMAHA EPPLEY   PTCLDY    57  46  66 W7        29.52S
6HR MIN TEMP:  56; 6HR MAX TEMP:  74;

BEATRICE       PTCLDY    60  49  68 S10       29.50F
FALLS CITY     MOCLDY    54  46  74 SE7       29.53F
6HR MIN TEMP:  54; 6HR MAX TEMP:  71;

NEBRASKA CITY  PTCLDY    57  40  53 S8        29.52S
PLATTSMOUTH    CLEAR     60  40  48 SE10      29.51F
$$

NEZ044-045-051>053-067-250700-
OMAHA AREA

CITY           SKY/WX    TMP DP  RH WIND       PRES   REMARKS
OMAHA EPPLEY   PTCLDY    57  46  66 W7        29.52S
6HR MIN TEMP:  56; 6HR MAX TEMP:  74;

BLAIR          CLEAR     55  46  70 N9        29.53S
FREMONT        CLEAR     51  41  68 NW6       29.55S
MILLARD        CLEAR     58  48  67 CALM      29.53R
OFFUTT AFB     CLEAR     57  44  60 SE7       29.51F
PLATTSMOUTH    CLEAR     60  40  48 SE10      29.51F
WAHOO          FAIR      51  42  71 N8        29.55R
$$




USA.gov is the U.S. government's official web portal to all federal, state and local government web resources and services.